Flag for Germany Weather past 2 weeks in Bernburg (Saale), Saxony-Anhalt, Germany

Now
50 °F

Partly sunny.


Feels Like: 49 °F
Forecast: 35 / 58 °F
Wind: 3 mph from Northwest

Location: Magdeburg

Current Time: Apr 28, 2015 at 1:57:09 PM

Latest Report: Apr 28, 2015 at 1:00 PM


Visibility: 31 mi

Pressure: 29.93 "Hg

Humidity: 57%

Dew point: 35 °F

Location of Bernburg (Saale)Location

Historic Weather in Bernburg (Saale) — Graph

°F

Bernburg (Saale) temperature yesterday

Maximum temperature yesterday: 53 °F (at 12:00 AM)
Minimum temperature yesterday: 46 °F (at 10:00 PM)
Average temperature yesterday: 50 °F

Past Weeks' High & Low Weather Summary

 TemperatureHumidityPressure
High74 °F (Apr 15, 4:00 PM)97% (Apr 26, 6:00 AM)30.42 "Hg (Apr 26, 6:00 AM)
Low32 °F (Apr 18, 7:00 AM)23% (Apr 21, 2:00 PM)29.59 "Hg (Apr 27, 7:00 AM)
Average51 °F65%30.07 "Hg
* Reported Apr 13 12:00 Noon — Apr 28 12:00 Noon, Bernburg (Saale), Weather by CustomWeather, © 2015

Note: Actual official high and low records may vary slightly from our data, if they occured in-between our weather recording intervals... More about our weather records

Advertising

Bernburg (Saale) weather history for previous 24 hours

 ConditionsComfort  
Time TempWeatherWind HumidityBarometerVisibility
12:00 PM
Tue, Apr 28
48 °FOvercast.3 mph74%29.92 "Hg31 mi
11:00 AM46 °FOvercast.2 mph77%N/A31 mi
10:00 AM44 °FOvercast.2 mph76%29.89 "Hg31 mi
9:00 AM43 °FOvercast.2 mph77%29.87 "Hg31 mi
8:00 AM42 °FOvercast.2 mph80%29.86 "Hg31 mi
7:00 AM42 °FOvercast.2 mph81%29.83 "Hg31 mi
6:00 AM43 °FOvercast.2 mph83%29.82 "Hg28 mi
4:00 AM44 °FOvercast.2 mph84%29.80 "Hg25 mi
3:00 AM43 °FOvercast.1 mph84%29.80 "Hg28 mi
2:00 AM43 °FOvercast.2 mph80%29.79 "Hg34 mi
1:00 AM44 °FLight rain. Overcast.2 mph83%29.80 "Hg19 mi
12:00 AM45 °FLight freezing rain. Overcast.2 mph80%29.80 "Hg9 mi
10:00 PM
Mon, Apr 27
46 °FLight rain. Overcast.3 mph88%29.77 "Hg5 mi
9:00 PM47 °FLight rain. Overcast.5 mph82%29.76 "Hg12 mi
8:00 PM48 °FOvercast.5 mph78%29.74 "Hg28 mi
7:00 PM49 °FOvercast.5 mph81%29.72 "Hg28 mi
6:00 PM48 °FDrizzle. Overcast.5 mph85%29.73 "Hg22 mi
4:00 PM49 °FLow clouds.5 mph87%29.72 "Hg16 mi
3:00 PM49 °FDrizzle. Low clouds.5 mph93%29.71 "Hg6 mi
2:00 PM50 °FLow clouds.5 mph92%29.69 "Hg9 mi
1:00 PM50 °FDrizzle. Low clouds.3 mph95%29.67 "Hg4 mi
Weather by CustomWeather, © 2015

See weather overviewHow to use our weather pages